Location: Aressy
(43.2833°N, 0.3167°W)
Time: 21:56:01
(UTC+00:00)

Helios 1A Rocket - Pass Details

Date: 28 January 2021
Orbit: 562 x 586 km, 98.3° (Epoch: 03 March)

Event Time Altitude Azimuth Distance (km) Brightness Sun altitude
Rises 18:59:26 0° 169° (S) 2,799 6.4 -20.3°
Reaches altitude 10° 19:01:35 10° 171° (S) 1,904 5.5 -20.7°
Maximum altitude 19:05:43 76° 257° (WSW) 609 3.0 -21.4°
Drops below altitude 10° 19:09:53 10° 344° (NNW) 1,917 5.7 -22.2°
Sets 19:12:03 0° 346° (NNW) 2,820 6.6 -22.6°
